AMX225 MMMY-MMGL

Flight info

Callsign AMX225
Flight time 1h 9m
Altitude 34000
Route KERGA1A KERGA UT44 MEZCA MEZCA1B
Aircraft MD82/M-SDFGIRWY/S

Departure

Time 2026-04-22 03:07
Airport Monterrey International Airport (MMMY)

Arrival

Time 2026-04-22 04:16
Airport Guadalajara International Airport (MMGL)
Time Latitude Longitude Altitude Speed Heading
2026-04-22 02:24 25.77464 -100.11015 1279 ft 0 kts 256°
2026-04-22 02:50 25.77467 -100.11001 1279 ft 2 kts 256°
2026-04-22 02:50 25.77471 -100.10984 1280 ft 2 kts 256°
2026-04-22 02:50 25.77474 -100.10967 1279 ft 2 kts 257°
2026-04-22 02:50 25.77478 -100.10949 1279 ft 2 kts 258°
2026-04-22 02:51 25.77479 -100.10932 1279 ft 2 kts 275°
2026-04-22 02:51 25.77476 -100.10915 1279 ft 2 kts 294°
2026-04-22 03:01 25.77476 -100.10916 1277 ft 1 kts 296°
2026-04-22 03:01 25.77494 -100.10928 1278 ft 5 kts 340°
2026-04-22 03:02 25.77536 -100.10943 1275 ft 9 kts 344°
2026-04-22 03:02 25.77627 -100.10963 1274 ft 8 kts 324°
2026-04-22 03:02 25.77685 -100.11045 1273 ft 18 kts 306°
2026-04-22 03:02 25.77735 -100.11111 1274 ft 2 kts
2026-04-22 03:03 25.77769 -100.11086 1274 ft 8 kts 34°
2026-04-22 03:03 25.77817 -100.11065 1274 ft 7 kts 345°
2026-04-22 03:03 25.77860 -100.11111 1275 ft 12 kts 306°
2026-04-22 03:03 25.77908 -100.11190 1277 ft 12 kts 302°
2026-04-22 03:04 25.77948 -100.11268 1277 ft 12 kts 299°
2026-04-22 03:04 25.77992 -100.11354 1278 ft 14 kts 301°
2026-04-22 03:04 25.78045 -100.11449 1280 ft 15 kts 298°
2026-04-22 03:04 25.78099 -100.11555 1282 ft 17 kts 300°
2026-04-22 03:05 25.78162 -100.11668 1284 ft 18 kts 302°
2026-04-22 03:05 25.78234 -100.11785 1286 ft 14 kts 319°
2026-04-22 03:05 25.78319 -100.11776 1288 ft 13 kts 30°
2026-04-22 03:05 25.78380 -100.11734 1289 ft 8 kts 32°
2026-04-22 03:06 25.78395 -100.11692 1289 ft 9 kts 96°
2026-04-22 03:06 25.78376 -100.11633 1288 ft 0 kts 121°
2026-04-22 03:06 25.78329 -100.11551 1286 ft 39 kts 122°
2026-04-22 03:07 25.78054 -100.11056 1275 ft 111 kts 122°
2026-04-22 03:07 25.77522 -100.10133 1297 ft 165 kts 122°
2026-04-22 03:07 25.76930 -100.08980 1908 ft 170 kts 119°
2026-04-22 03:07 25.76411 -100.07900 2909 ft 155 kts 118°
2026-04-22 03:08 25.75873 -100.06814 3486 ft 167 kts 122°
2026-04-22 03:08 25.75281 -100.05670 4095 ft 169 kts 122°
2026-04-22 03:08 25.74659 -100.04632 4865 ft 166 kts 134°
2026-04-22 03:08 25.73639 -100.03832 5206 ft 195 kts 162°
2026-04-22 03:09 25.72294 -100.03775 6101 ft 188 kts 189°
2026-04-22 03:09 25.71114 -100.04248 7026 ft 182 kts 207°
2026-04-22 03:09 25.69901 -100.04949 7125 ft 212 kts 200°
2026-04-22 03:09 25.68423 -100.05327 7498 ft 220 kts 182°
2026-04-22 03:10 25.66957 -100.05208 8354 ft 201 kts 172°
2026-04-22 03:10 25.65616 -100.05200 9126 ft 197 kts 183°
2026-04-22 03:10 25.64116 -100.05117 9093 ft 236 kts 177°
2026-04-22 03:10 25.62412 -100.04949 9490 ft 250 kts 178°
2026-04-22 03:11 25.60787 -100.04869 10431 ft 234 kts 185°
2026-04-22 03:11 25.59156 -100.04958 11016 ft 241 kts 184°
2026-04-22 03:11 25.57420 -100.04900 11363 ft 258 kts 180°
2026-04-22 03:11 25.55573 -100.04746 11721 ft 274 kts 179°
2026-04-22 03:12 25.53606 -100.04539 11951 ft 295 kts 178°
2026-04-22 03:12 25.49274 -100.04025 12418 ft 330 kts 177°
2026-04-22 03:12 25.46938 -100.03737 12642 ft 346 kts 177°
2026-04-22 03:13 25.44491 -100.03432 12857 ft 363 kts 177°
2026-04-22 03:13 25.41915 -100.03111 13164 ft 379 kts 177°
2026-04-22 03:13 25.39293 -100.02775 13956 ft 381 kts 177°
2026-04-22 03:13 25.36642 -100.02419 14619 ft 385 kts 177°
2026-04-22 03:14 25.33984 -100.02048 15377 ft 386 kts 177°
2026-04-22 03:14 25.31307 -100.01664 16065 ft 389 kts 177°
2026-04-22 03:14 25.28614 -100.01271 16790 ft 392 kts 176°
2026-04-22 03:14 25.25897 -100.00873 17470 ft 395 kts 177°
2026-04-22 03:15 25.23190 -100.00474 18152 ft 399 kts 177°
2026-04-22 03:15 25.20427 -100.00057 18770 ft 403 kts 177°
2026-04-22 03:15 25.17640 -99.99628 19349 ft 407 kts 177°
2026-04-22 03:15 25.14826 -99.99393 19914 ft 405 kts 186°
2026-04-22 03:16 25.12961 -99.99453 20346 ft 404 kts 188°
2026-04-22 03:16 25.10140 -99.99638 20742 ft 411 kts 189°
2026-04-22 03:16 25.06404 -99.99930 21533 ft 415 kts 191°
2026-04-22 03:16 25.03550 -100.00381 22036 ft 414 kts 194°
2026-04-22 03:17 25.00679 -100.00777 22419 ft 423 kts 189°
2026-04-22 03:17 24.97719 -100.00824 22903 ft 428 kts 184°
2026-04-22 03:17 24.95713 -100.00887 23170 ft 425 kts 194°
2026-04-22 03:17 24.92924 -100.01781 23602 ft 415 kts 209°
2026-04-22 03:18 24.90332 -100.03187 23970 ft 415 kts 213°
2026-04-22 03:18 24.87812 -100.04744 24353 ft 416 kts 215°
2026-04-22 03:18 24.85321 -100.06375 24582 ft 417 kts 216°
2026-04-22 03:18 24.82849 -100.08041 25011 ft 417 kts 217°
2026-04-22 03:19 24.80370 -100.09717 25347 ft 420 kts 216°
2026-04-22 03:19 24.77872 -100.11391 25725 ft 422 kts 216°
2026-04-22 03:19 24.75351 -100.13058 26095 ft 423 kts 216°
2026-04-22 03:19 24.72816 -100.14711 26458 ft 425 kts 216°
2026-04-22 03:20 24.70261 -100.16371 26758 ft 428 kts 216°
2026-04-22 03:20 24.67691 -100.18037 27092 ft 430 kts 216°
2026-04-22 03:20 24.65104 -100.19711 27420 ft 433 kts 216°
2026-04-22 03:20 24.62506 -100.21393 27775 ft 435 kts 216°
2026-04-22 03:21 24.59892 -100.23081 28125 ft 437 kts 216°
2026-04-22 03:21 24.57269 -100.24777 28487 ft 438 kts 216°
2026-04-22 03:21 24.54640 -100.26477 28848 ft 439 kts 216°
2026-04-22 03:21 24.52007 -100.28179 29196 ft 440 kts 216°
2026-04-22 03:22 24.49372 -100.29885 29578 ft 440 kts 216°
2026-04-22 03:22 24.46731 -100.31595 29966 ft 440 kts 216°
2026-04-22 03:22 24.44093 -100.33302 30316 ft 440 kts 216°
2026-04-22 03:22 24.41458 -100.35006 30641 ft 439 kts 216°
2026-04-22 03:23 24.38832 -100.36705 30975 ft 438 kts 216°
2026-04-22 03:23 24.36217 -100.38395 31289 ft 435 kts 216°
2026-04-22 03:23 24.33617 -100.40075 31635 ft 432 kts 216°
2026-04-22 03:23 24.31034 -100.41745 31974 ft 430 kts 216°
2026-04-22 03:24 24.28501 -100.43382 32290 ft 427 kts 216°
2026-04-22 03:24 24.25949 -100.45030 32644 ft 424 kts 216°
2026-04-22 03:24 24.23413 -100.46669 32999 ft 422 kts 216°
2026-04-22 03:24 24.20891 -100.48297 33353 ft 420 kts 216°
2026-04-22 03:25 24.18380 -100.49914 33701 ft 418 kts 216°
2026-04-22 03:25 24.15866 -100.51533 33867 ft 420 kts 216°
2026-04-22 03:25 24.10842 -100.54766 33977 ft 418 kts 216°
2026-04-22 03:26 24.05843 -100.57980 33998 ft 416 kts 217°
2026-04-22 03:26 24.00853 -100.61180 33961 ft 416 kts 217°
2026-04-22 03:27 23.95863 -100.64410 33990 ft 417 kts 216°
2026-04-22 03:27 23.90856 -100.67622 33996 ft 417 kts 216°
2026-04-22 03:28 23.85847 -100.70828 33997 ft 417 kts 216°
2026-04-22 03:28 23.80838 -100.74027 33980 ft 417 kts 216°
2026-04-22 03:29 23.75833 -100.77224 33983 ft 417 kts 216°
2026-04-22 03:29 23.70829 -100.80424 33987 ft 417 kts 216°
2026-04-22 03:30 23.65813 -100.83637 33978 ft 418 kts 216°
2026-04-22 03:30 23.60797 -100.86849 33996 ft 418 kts 216°
2026-04-22 03:31 23.55779 -100.90048 34003 ft 418 kts 216°
2026-04-22 03:31 23.50771 -100.93267 34000 ft 417 kts 218°
2026-04-22 03:32 23.46053 -100.96881 34010 ft 413 kts 221°
2026-04-22 03:32 23.41454 -101.00633 34009 ft 413 kts 221°
2026-04-22 03:33 23.36841 -101.04362 34008 ft 414 kts 221°
2026-04-22 03:33 23.32187 -101.08067 34016 ft 415 kts 220°
2026-04-22 03:34 23.27504 -101.11769 34016 ft 416 kts 220°
2026-04-22 03:34 23.22817 -101.15467 34013 ft 416 kts 220°
2026-04-22 03:35 23.18164 -101.19145 34036 ft 416 kts 220°
2026-04-22 03:35 23.13478 -101.22843 34039 ft 416 kts 220°
2026-04-22 03:36 23.08792 -101.26533 34033 ft 416 kts 220°
2026-04-22 03:36 23.04106 -101.30227 34040 ft 417 kts 220°
2026-04-22 03:37 22.99422 -101.33917 34014 ft 417 kts 220°
2026-04-22 03:37 22.94708 -101.37633 34023 ft 419 kts 220°
2026-04-22 03:38 22.89988 -101.41343 34029 ft 419 kts 220°
2026-04-22 03:38 22.85274 -101.45047 34033 ft 418 kts 220°
2026-04-22 03:39 22.80562 -101.48746 34021 ft 418 kts 220°
2026-04-22 03:39 22.75842 -101.52439 34015 ft 418 kts 220°
2026-04-22 03:40 22.71121 -101.56135 34021 ft 418 kts 220°
2026-04-22 03:40 22.66407 -101.59829 34003 ft 419 kts 220°
2026-04-22 03:41 22.61679 -101.63536 34001 ft 420 kts 220°
2026-04-22 03:41 22.56941 -101.67234 34002 ft 420 kts 220°
2026-04-22 03:42 22.52198 -101.70921 34003 ft 419 kts 220°
2026-04-22 03:42 22.47475 -101.74614 33997 ft 419 kts 220°
2026-04-22 03:43 22.42760 -101.78309 33983 ft 419 kts 220°
2026-04-22 03:43 22.38035 -101.82000 33973 ft 419 kts 220°
2026-04-22 03:44 22.33289 -101.85667 33967 ft 420 kts 220°
2026-04-22 03:44 22.28530 -101.89353 33976 ft 422 kts 220°
2026-04-22 03:45 22.23771 -101.93045 33960 ft 421 kts 220°
2026-04-22 03:45 22.19019 -101.96735 33963 ft 421 kts 220°
2026-04-22 03:46 22.14268 -102.00426 33962 ft 421 kts 220°
2026-04-22 03:46 22.09515 -102.04113 33966 ft 421 kts 220°
2026-04-22 03:47 22.04752 -102.07797 33961 ft 422 kts 220°
2026-04-22 03:47 21.99979 -102.11493 33941 ft 422 kts 220°
2026-04-22 03:48 21.95191 -102.15189 33957 ft 425 kts 219°
2026-04-22 03:48 21.90232 -102.18686 33960 ft 426 kts 217°
2026-04-22 03:49 21.85219 -102.22103 33959 ft 426 kts 217°
2026-04-22 03:49 21.80233 -102.25541 33959 ft 425 kts 217°
2026-04-22 03:50 21.77746 -102.27271 34232 ft 426 kts 217°
2026-04-22 03:50 21.75316 -102.28967 34231 ft 426 kts 218°
2026-04-22 03:50 21.70368 -102.32465 34231 ft 424 kts 220°
2026-04-22 03:51 21.65735 -102.36318 34212 ft 417 kts 223°
2026-04-22 03:51 21.61266 -102.40210 33560 ft 410 kts 223°
2026-04-22 03:52 21.59058 -102.42103 33005 ft 404 kts 223°
2026-04-22 03:52 21.56865 -102.43963 32429 ft 399 kts 223°
2026-04-22 03:52 21.54697 -102.45793 31819 ft 395 kts 222°
2026-04-22 03:52 21.52533 -102.47613 31186 ft 393 kts 223°
2026-04-22 03:53 21.50387 -102.49417 30585 ft 391 kts 222°
2026-04-22 03:53 21.48261 -102.51203 29959 ft 388 kts 223°
2026-04-22 03:53 21.46134 -102.52990 29293 ft 385 kts 222°
2026-04-22 03:53 21.44035 -102.54753 28680 ft 382 kts 222°
2026-04-22 03:54 21.41952 -102.56504 28073 ft 379 kts 222°
2026-04-22 03:54 21.39886 -102.58241 27499 ft 376 kts 222°
2026-04-22 03:54 21.37823 -102.59974 26903 ft 375 kts 222°
2026-04-22 03:54 21.35774 -102.61695 26340 ft 372 kts 222°
2026-04-22 03:55 21.33741 -102.63400 25820 ft 370 kts 222°
2026-04-22 03:55 21.31722 -102.65093 25267 ft 368 kts 222°
2026-04-22 03:55 21.29707 -102.66787 24734 ft 366 kts 221°
2026-04-22 03:55 21.27719 -102.68456 24363 ft 360 kts 221°
2026-04-22 03:56 21.25758 -102.70091 24180 ft 354 kts 221°
2026-04-22 03:56 21.23813 -102.71713 24087 ft 356 kts 221°
2026-04-22 03:56 21.21851 -102.73354 24038 ft 360 kts 221°
2026-04-22 03:56 21.19861 -102.75018 24012 ft 364 kts 221°
2026-04-22 03:57 21.17855 -102.76696 23999 ft 367 kts 221°
2026-04-22 03:57 21.15844 -102.78375 23989 ft 368 kts 221°
2026-04-22 03:57 21.13808 -102.80053 23979 ft 370 kts 218°
2026-04-22 03:57 21.11486 -102.81251 23983 ft 377 kts 197°
2026-04-22 03:58 21.08869 -102.81491 23761 ft 378 kts 179°
2026-04-22 03:58 21.06276 -102.81162 23250 ft 376 kts 174°
2026-04-22 03:58 21.03691 -102.80724 22615 ft 376 kts 173°
2026-04-22 03:58 21.01120 -102.80264 22025 ft 374 kts 173°
2026-04-22 03:59 20.98568 -102.79804 21519 ft 370 kts 173°
2026-04-22 03:59 20.96041 -102.79362 21031 ft 366 kts 173°
2026-04-22 03:59 20.93535 -102.78929 20529 ft 362 kts 173°
2026-04-22 03:59 20.91059 -102.78510 20019 ft 359 kts 173°
2026-04-22 04:00 20.88597 -102.78105 19510 ft 357 kts 173°
2026-04-22 04:00 20.86152 -102.77714 19012 ft 354 kts 173°
2026-04-22 04:00 20.83732 -102.77328 18550 ft 350 kts 173°
2026-04-22 04:00 20.81331 -102.76950 17983 ft 348 kts 172°
2026-04-22 04:01 20.78911 -102.76576 17103 ft 355 kts 172°
2026-04-22 04:01 20.76435 -102.76193 16196 ft 363 kts 172°
2026-04-22 04:01 20.73939 -102.75801 15308 ft 360 kts 172°
2026-04-22 04:01 20.71514 -102.75259 14470 ft 354 kts 158°
2026-04-22 04:02 20.70092 -102.74472 14137 ft 343 kts 146°
2026-04-22 04:02 20.68225 -102.73044 13881 ft 321 kts 142°
2026-04-22 04:02 20.66498 -102.71639 13574 ft 304 kts 141°
2026-04-22 04:02 20.64859 -102.70284 13283 ft 294 kts 141°
2026-04-22 04:03 20.63263 -102.68951 13146 ft 289 kts 141°
2026-04-22 04:03 20.61695 -102.67646 13067 ft 285 kts 142°
2026-04-22 04:03 20.60120 -102.66351 13035 ft 287 kts 142°
2026-04-22 04:03 20.58526 -102.65059 13017 ft 288 kts 143°
2026-04-22 04:04 20.56913 -102.63766 13001 ft 292 kts 143°
2026-04-22 04:04 20.55266 -102.62493 12994 ft 292 kts 149°
2026-04-22 04:04 20.53348 -102.61755 12729 ft 297 kts 171°
2026-04-22 04:04 20.51295 -102.61482 12403 ft 297 kts 175°
2026-04-22 04:05 20.49251 -102.61268 12080 ft 294 kts 175°
2026-04-22 04:05 20.47227 -102.61211 11770 ft 288 kts 190°
2026-04-22 04:05 20.45379 -102.61843 11469 ft 281 kts 212°
2026-04-22 04:05 20.43886 -102.63172 11163 ft 275 kts 235°
2026-04-22 04:06 20.43017 -102.64921 10863 ft 269 kts 255°
2026-04-22 04:06 20.42572 -102.66852 10549 ft 267 kts 262°
2026-04-22 04:06 20.42378 -102.68816 10244 ft 265 kts 269°
2026-04-22 04:06 20.42309 -102.70768 9942 ft 262 kts 270°
2026-04-22 04:07 20.42284 -102.72700 9613 ft 260 kts 271°
2026-04-22 04:07 20.42256 -102.74622 9299 ft 258 kts 267°
2026-04-22 04:07 20.42083 -102.76508 9065 ft 256 kts 264°
2026-04-22 04:07 20.41845 -102.78383 8930 ft 254 kts 263°
2026-04-22 04:08 20.41588 -102.80233 8868 ft 252 kts 263°
2026-04-22 04:08 20.41331 -102.82089 8835 ft 253 kts 263°
2026-04-22 04:08 20.41068 -102.83951 8814 ft 256 kts 262°
2026-04-22 04:08 20.40798 -102.85824 8802 ft 255 kts 263°
2026-04-22 04:09 20.40528 -102.87702 8806 ft 256 kts 264°
2026-04-22 04:09 20.40312 -102.89580 8803 ft 256 kts 265°
2026-04-22 04:09 20.40139 -102.91467 8799 ft 256 kts 266°
2026-04-22 04:09 20.39977 -102.93370 8800 ft 257 kts 266°
2026-04-22 04:10 20.39871 -102.95264 8797 ft 257 kts 270°
2026-04-22 04:10 20.39870 -102.97165 8793 ft 257 kts 271°
2026-04-22 04:10 20.39793 -102.99066 8798 ft 258 kts 266°
2026-04-22 04:10 20.39728 -103.00953 8795 ft 253 kts 281°
2026-04-22 04:11 20.40291 -103.02742 8797 ft 255 kts 293°
2026-04-22 04:11 20.40995 -103.04483 8792 ft 255 kts 293°
2026-04-22 04:11 20.41688 -103.06205 8795 ft 253 kts 293°
2026-04-22 04:11 20.42423 -103.07915 8773 ft 254 kts 296°
2026-04-22 04:12 20.43197 -103.09653 8396 ft 262 kts 293°
2026-04-22 04:12 20.43931 -103.11424 8118 ft 260 kts 294°
2026-04-22 04:12 20.44675 -103.13174 7920 ft 258 kts 293°
2026-04-22 04:12 20.45397 -103.14909 7601 ft 252 kts 294°
2026-04-22 04:13 20.46097 -103.16575 7309 ft 237 kts 293°
2026-04-22 04:13 20.46717 -103.18050 7107 ft 201 kts 293°
2026-04-22 04:13 20.47251 -103.19328 6857 ft 179 kts 292°
2026-04-22 04:13 20.47726 -103.20465 6717 ft 156 kts 292°
2026-04-22 04:14 20.48137 -103.21453 6558 ft 140 kts 292°
2026-04-22 04:14 20.48529 -103.22395 6335 ft 139 kts 293°
2026-04-22 04:14 20.48934 -103.23337 6139 ft 140 kts 293°
2026-04-22 04:14 20.49336 -103.24275 6026 ft 140 kts 292°
2026-04-22 04:15 20.49717 -103.25218 5965 ft 139 kts 291°
2026-04-22 04:15 20.50114 -103.26140 5670 ft 138 kts 291°
2026-04-22 04:15 20.50520 -103.27080 5542 ft 143 kts 289°
2026-04-22 04:15 20.50920 -103.28095 5336 ft 154 kts 290°
2026-04-22 04:16 20.51366 -103.29167 5100 ft 161 kts 293°
2026-04-22 04:16 20.52106 -103.30929 5021 ft 86 kts 294°
2026-04-22 04:16 20.52282 -103.31346 5023 ft 43 kts 295°
2026-04-22 04:17 20.52436 -103.31538 5022 ft 22 kts 324°
2026-04-22 04:17 20.52557 -103.31587 5019 ft 18 kts 11°
2026-04-22 04:17 20.52661 -103.31544 5021 ft 15 kts 23°
2026-04-22 04:17 20.52750 -103.31493 5019 ft 14 kts 56°
2026-04-22 04:18 20.52739 -103.31394 5020 ft 14 kts 114°
2026-04-22 04:18 20.52699 -103.31301 5021 ft 14 kts 114°
2026-04-22 04:18 20.52660 -103.31202 5021 ft 15 kts 113°
2026-04-22 04:18 20.52618 -103.31101 5021 ft 15 kts 113°
2026-04-22 04:19 20.52573 -103.30998 5021 ft 16 kts 115°
2026-04-22 04:19 20.52529 -103.30892 5021 ft 16 kts 113°
2026-04-22 04:19 20.52488 -103.30783 5021 ft 16 kts 111°
2026-04-22 04:19 20.52448 -103.30671 5021 ft 16 kts 109°
2026-04-22 04:20 20.52403 -103.30564 5021 ft 16 kts 123°
2026-04-22 04:20 20.52342 -103.30468 5021 ft 14 kts 117°
2026-04-22 04:20 20.52347 -103.30448 5021 ft 5 kts 42°
2026-04-22 04:20 20.52404 -103.30412 5021 ft 12 kts 27°
2026-04-22 04:21 20.52434 -103.30339 5020 ft 12 kts 94°
2026-04-22 04:21 20.52423 -103.30252 5020 ft 12 kts 105°
2026-04-22 04:21 20.52395 -103.30166 5020 ft 13 kts 108°
2026-04-22 04:21 20.52374 -103.30093 5020 ft 7 kts 106°
2026-04-22 04:22 20.52374 -103.30055 5020 ft 1 kts 53°
2026-04-22 04:22 20.52383 -103.30048 5020 ft 4 kts 37°
2026-04-22 04:22 20.52403 -103.30037 5020 ft 2 kts 24°
2026-04-22 04:22 20.52408 -103.30035 5020 ft 0 kts 20°